Location: Newark
(51.7378°N, 19.8125°E)
Time: 18:06:56
(UTC+00:00)

Envisat - Visible Passes

Search period start: 08 December 2019 00:00
Search period end: 18 December 2019 00:00
Orbit: 764 x 766 km, 98.1° (Epoch: 08 December)

Date Brightness Start Highest point End Pass type
(mag) Time Alt. Az. Time Alt. Az. Time Alt. Az.
08 Dec 5.9 04:15:25 10° NE 04:18:41 17° E 04:21:56 10° SE visible
08 Dec 3.5 15:34:49 10° SE 15:39:28 38° ENE 15:44:09 10° N visible
08 Dec 4.4 17:13:48 10° SSW 17:18:31 37° W 17:23:14 10° NNW visible
09 Dec 4.0 05:16:33 10° NNE 05:21:32 51° E 05:26:28 10° S visible
09 Dec 3.2 16:36:30 10° S 16:41:34 74° WSW 16:46:41 10° NNW visible
09 Dec 6.1 18:19:34 10° WSW 18:21:31 12° W 18:23:27 10° WNW visible
10 Dec 5.3 04:40:12 10° NE 04:44:29 27° E 04:48:45 10° SSE visible
10 Dec 3.0 15:59:51 10° SSE 16:04:49 59° ENE 16:09:50 10° N visible
10 Dec 5.3 17:40:10 10° SW 17:44:14 24° W 17:48:20 10° NW visible
11 Dec 6.1 04:04:41 10° NE 04:07:15 14° E 04:09:47 10° ESE visible
11 Dec 3.2 05:41:58 10° NNE 05:47:06 82° ESE 05:52:11 10° SSW visible
11 Dec 3.7 15:23:49 10° ESE 15:28:16 32° ENE 15:32:44 10° N visible
11 Dec 4.1 17:02:17 10° S 17:07:09 46° W 17:12:03 10° NNW visible
12 Dec 4.4 05:05:21 10° NNE 05:10:12 42° E 05:15:00 10° SSE visible
12 Dec 3.0 16:25:11 10° SSE 16:30:17 88° W 16:35:25 10° NNW visible
12 Dec 5.9 18:07:13 10° WSW 18:10:04 15° W 18:12:56 10° NW visible
13 Dec 5.6 04:29:09 10° NE 04:33:05 22° E 04:37:00 10° SE visible
13 Dec 3.2 15:48:43 10° SE 15:53:35 49° ENE 15:58:29 10° N visible
13 Dec 4.9 17:28:28 10° SSW 17:32:51 29° W 17:37:15 10° NNW visible
14 Dec 6.3 03:54:25 10° ENE 03:55:47 11° E 03:57:09 10° E visible
14 Dec 3.4 05:30:42 10° NNE 05:35:48 68° ESE 05:40:51 10° S visible
14 Dec 3.9 15:12:52 10° ESE 15:17:05 27° ENE 15:21:18 10° N visible
14 Dec 3.7 16:50:51 10° S 16:55:49 56° W 17:00:51 10° NNW visible
15 Dec 4.8 04:54:11 10° NNE 04:58:50 35° E 05:03:27 10° SSE visible
15 Dec 2.9 16:13:56 10° SSE 16:19:00 77° ENE 16:24:06 10° NNW visible
15 Dec 5.6 17:55:10 10° SW 17:58:38 18° W 18:02:06 10° NW visible
16 Dec 5.8 04:18:11 10° NE 04:21:41 18° E 04:25:08 10° SE visible
16 Dec 3.0 05:56:12 10° NNE 06:01:18 77° WNW 06:06:23 10° SSW visible
16 Dec 3.4 15:37:39 10° SE 15:42:22 40° ENE 15:47:07 10° N visible
16 Dec 4.6 17:16:51 10° SSW 17:21:28 35° W 17:26:07 10° NNW visible
17 Dec 3.8 05:19:27 10° NNE 05:24:29 56° E 05:29:28 10° S visible
17 Dec 3.3 16:39:27 10° S 16:44:30 68° WSW 16:49:36 10° NNW visible
17 Dec 6.2 18:23:08 10° W 18:24:31 11° W 18:25:55 10° WNW visible
